Location: Burbank
(38.7788°N, 114.0429°W)
Time: 02:22:39
(UTC+00:00)

Tiros 1 despin weight - Pass Details

Date: 18 May 2026
Orbit: 554 x 591 km, 48.2° (Epoch: 6 June)

Event Time Altitude Azimuth Distance (km) Brightness Sun altitude
Rises 13:44:46 0° 286° (WNW) 2,753 ? 14.4°
Reaches altitude 10° 13:47:25 10° 301° (WNW) 1,851 ? 14.9°
Maximum altitude 13:50:48 23° 354° (N) 1,217 ? 15.6°
Drops below altitude 10° 13:54:11 10° 48° (NE) 1,839 ? 16.2°
Sets 13:56:48 0° 63° (ENE) 2,731 ? 16.7°
